Location: *
(50.8667°S, 179.2667°W)
Time: 02:30:36
(UTC+00:00)

SL-16 R/B - Pass Details

Date: 02 October 2023
Orbit: 985 x 1006 km, 99.7° (Epoch: 01 December)

Event Time Altitude Azimuth Distance (km) Brightness Sun altitude
Rises 14:27:36 0° 158° (SSE) 3,777 6.6 -25.6°
Reaches altitude 10° 14:30:25 10° 148° (SSE) 2,820 5.9 -25.2°
Maximum altitude 14:36:03 32° 86° (E) 1,663 4.0 -24.6°
Drops below altitude 10° 14:41:36 10° 23° (NNE) 2,788 4.7 -23.9°
Enters shadow 14:42:26 - 20° (NNE) 3,061 4.9 -23.8°
